Location: Unspecified
(0.0000°N, 0.0000°E)
Time: 22:14:54
(UTC+00:00)

Tiros 1 - Visible Passes

Search period start: 09 February 2026 00:00
Search period end: 19 February 2026 00:00
Orbit: 619 x 649 km, 48.4° (Epoch: 9 February)

Date Brightness Start Highest point End Pass type
(mag) Time Alt. Az. Time Alt. Az. Time Alt. Az.
10 Feb 8.5 19:13:46 10° N 19:16:42 20° NE 19:16:42 20° NE visible
11 Feb 7.0 19:34:13 10° NNW 19:38:45 61° NE 19:39:39 50° E visible
12 Feb 8.2 19:56:00 10° WNW 20:00:21 42° SW 20:02:59 21° S visible
13 Feb 7.5 18:35:54 10° NNW 18:40:15 42° NE 18:44:38 10° ESE visible
13 Feb 10.0 20:19:29 10° W 20:22:01 14° SW 20:24:33 10° SSW visible
14 Feb 7.7 18:57:18 10° NW 19:01:49 59° SW 19:06:24 10° SSE visible
15 Feb 10.0 05:27:48 10° S 05:31:04 18° SE 05:34:17 10° E visible
15 Feb 9.8 19:20:06 10° W 19:23:27 20° SW 19:26:50 10° S visible
17 Feb 10.1 04:30:11 10° SSE 04:32:29 13° SE 04:34:47 10° E visible
18 Feb 8.5 04:49:46 10° SSW 04:54:09 38° SE 04:58:29 10° ENE visible
